Dewpoint
55 54 53 52 51 52 52 51 51 52 52 52 53 54 55 55 54 50 48 51 46 43 44 40 38 39 39 37 35 36 35 36 35 29 31 31 30 32 30 32 30 30 28 29 29 28 26 35 34 32 35 37 37 36
55 53 53 52 51 51 52 52 50 52 52 52 52 54 55 54 54 52 47 50 50 46 43 44 45 42 38 38 38 38 35 36 37 34 34 30 32 33 32 26 37 28 31 28 32 28 35 37 37 39 39 37 37 36
55 53 52 51 50 51 52 52 51 50 51 52 52 53 54 54 54 53 47 48 50 46 44 43 43 42 40 39 40 39 40 40 39 40 36 35 31 33 29 31 33 36 35 33 33 33 34 37 40 40 39 39 37 37
54 53 52 50 50 51 51 52 51 50 50 50 52 53 54 54 54 53 47 49 49 46 41 43 44 40 40 40 39 38 39 44 43 41 36 35 33 35 28 32 34 34 36 34 34 36 37 38 39 41 41 41 39 39
54 53 51 50 50 51 51 52 51 50 50 50 51 53 53 54 53 52 49 49 50 48 42 43 45 45 44 38 38 39 44 44 42 40 38 36 37 35 35 37 34 38 35 34 30 34 36 37 40 41 41 39 41 40
53 52 50 50 50 50 51 52 51 50 50 50 50 52 53 54 53 49 47 52 51 51 47 40 44 43 41 39 39 39 40 42 43 41 39 42 39 35 32 34 35 37 39 38 36 39 39 41 42 43 41 40 41 41
53 52 50 49 50 50 51 51 52 51 50 50 50 51 52 53 48 46 46 50 50 50 47 43 42 46 48 47 45 43 46 44 40 39 39 39 37 37 33 28 35 39 39 41 41 40 39 40 39 42 42 42 42 41
53 51 49 49 49 50 51 51 52 51 50 49 50 50 52 52 50 46 48 49 50 48 48 43 41 44 47 45 45 49 46 44 41 41 40 38 38 36 29 35 37 40 39 39 40 42 41 41 42 42 43 43 40 39
52 50 48 49 49 50 50 51 51 51 50 50 50 51 50 47 45 49 54 53 51 48 44 45 40 39 50 50 49 49 48 42 47 43 40 40 34 28 32 35 37 38 37 37 38 39 39 40 41 41 42 41 40 40
51 49 48 49 49 50 50 51 51 51 50 50 49 48 46 50 55 52 47 44 45 45 45 40 45 41 45 46 43 46 47 43 39 43 44 37 34 36 37 39 39 39 37 36 35 34 35 36 37 38 39 42 41 42
49 48 48 49 49 50 50 51 51 51 50 47 47 48 52 55 49 47 44 45 46 44 44 44 44 42 47 40 40 45 42 41 36 40 40 36 34 40 42 41 41 40 39 37 35 37 37 38 39 38 38 41 42 42
48 48 48 48 49 50 51 50 50 48 48 48 47 49 50 48 48 44 45 45 44 41 47 45 45 46 46 49 43 41 40 42 34 42 36 32 37 44 42 40 41 39 40 40 43 41 41 41 41 39 39 39 39 42
48 48 48 49 49 49 51 50 50 50 49 49 48 47 48 46 38 42 37 40 41 45 48 47 46 46 45 43 39 39 38 36 39 35 32 34 42 45 44 42 40 39 41 43 44 43 43 42 42 40 39 40 40 40
48 48 48 49 50 50 51 50 49 48 45 47 48 38 44 42 44 45 46 46 48 48 46 46 44 43 44 40 40 35 37 41 34 31 33 39 40 43 43 41 41 39 39 42 43 44 43 42 40 40 40 40 41 41
48 48 49 49 50 50 52 51 49 48 47 48 48 38 42 44 49 50 49 49 50 49 47 45 44 42 39 37 38 34 33 31 32 30 36 40 40 42 41 36 40 40 39 41 39 40 39 39 37 39 39 39 41 44
49 49 49 51 52 51 51 51 48 49 51 49 47 42 42 46 47 48 48 47 46 45 46 43 38 37 36 36 34 32 31 28 33 38 41 41 41 42 38 37 39 40 39 39 39 39 40 38 35 35 39 39 42 43
48 47 51 50 50 51 51 50 50 50 50 47 44 44 45 49 49 50 47 47 47 40 36 38 36 35 39 35 32 35 33 36 39 41 43 42 41 46 47 41 38 40 40 40 39 40 41 39 36 33 37 39 41 42
46 51 50 50 47 50 51 49 51 52 48 48 43 44 51 51 48 48 50 50 45 41 40 39 40 36 34 34 33 37 40 41 42 42 41 42 43 45 48 46 42 40 41 42 42 42 42 41 40 35 39 40 40 40
44 45 49 50 45 42 50 52 50 45 44 44 45 48 53 53 53 52 50 48 45 46 43 41 37 37 37 39 39 39 41 41 41 41 41 42 43 42 43 45 45 43 44 43 41 41 42 42 43 39 39 39 39 40
49 49 50 50 48 45 47 49 52 49 47 46 51 50 51 50 53 53 49 48 45 44 39 37 37 40 41 41 42 40 43 41 41 41 40 40 42 42 42 44 44 44 45 44 43 42 41 42 43 40 38 38 37 37
49 50 50 48 47 49 49 48 49 50 49 48 51 50 50 51 50 48 46 45 44 39 38 39 40 43 45 45 45 46 44 43 41 41 41 39 41 38 42 42 42 40 40 40 41 40 41 41 42 41 38 36 38 39
48 53 52 51 51 52 49 50 46 49 46 47 48 50 48 46 46 46 48 43 40 41 43 41 43 45 45 45 44 44 45 45 43 42 39 37 35 36 36 37 38 39 41 40 39 39 41 43 44 43 37 37 38 38
49 53 53 54 51 46 42 51 48 47 43 44 49 49 50 50 52 53 46 45 43 44 43 43 43 44 43 45 44 44 44 44 42 39 37 37 36 35 34 36 40 42 42 42 41 41 40 39 40 43 42 38 38 37
52 50 49 50 49 42 47 45 48 45 47 47 47 46 48 50 52 49 43 43 44 46 43 43 47 45 44 42 39 39 39 37 36 36 36 36 36 36 36 37 40 42 43 37 39 39 40 40 39 40 41 37 37 36
44 43 46 38 46 46 44 43 43 45 45 47 47 47 47 50 47 46 43 43 45 45 41 36 35 34 32 34 36 37 35 34 35 35 36 34 34 33 34 36 36 36 38 38 37 36 39 40 40 36 37 35 36 38
38 43 42 43 40 38 38 41 46 47 47 47 48 50 50 46 44 43 45 46 48 40 34 33 31 31 32 35 34 32 32 32 30 31 32 34 33 32 33 34 34 36 37 39 38 37 37 36 35 33 33 35 35 34
38 42 44 47 42 41 41 45 48 47 46 46 47 48 46 40 39 43 47 50 42 35 34 32 32 30 31 32 33 31 30 29 28 28 30 29 29 29 30 31 32 35 37 36 36 37 37 35 33 34 35 34 34 34
42 41 41 41 41 44 42 43 47 46 47 50 49 46 45 44 44 48 49 50 39 33 30 29 29 31 31 32 32 32 31 31 29 28 28 26 26 28 31 35 35 34 30 32 32 35 34 33 33 32 32 32 32 33
42 43 41 39 40 40 47 48 49 50 51 50 48 46 47 52 49 45 48 46 44 34 30 29 28 29 28 28 29 30 32 31 27 25 25 26 26 28 31 32 32 28 24 24 32 32 31 33 33 33 33 33 31 30
37 38 36 35 38 45 48 51 51 52 53 53 52 50 47 45 45 47 46 45 44 43 36 32 30 27 24 21 21 26 29 30 30 27 26 26 26 29 31 32 31 28 25 27 27 27 34 34 33 32 31 30 31 30
37 37 34 38 48 50 51 53 53 55 55 53 52 51 49 45 46 47 46 47 44 31 26 23 23 27 27 26 24 28 30 32 32 27 27 28 30 31 30 30 30 32 32 32 32 32 32 31 31 31 28 27 28 29
38 37 41 47 50 52 52 50 51 51 52 52 51 51 47 45 43 43 44 43 36 28 31 26 24 28 31 32 32 32 34 31 32 32 32 33 33 32 32 30 29 30 31 33 32 32 30 28 28 27 27 29 30 30
46 48 49 49 49 50 50 49 48 48 50 50 49 46 46 46 42 43 45 43 37 30 27 26 31 33 32 31 31 31 32 31 33 34 34 34 33 32 32 32 32 32 30 29 29 29 28 27 27 28 30 30 31 30
Lifted_Index
3 3 4 7 9 10 10 9 8 7 6 6 6 6 6 6 5 3 2 2 2 2 2 2 2 2 2 3 3 3 4 4 4 4 5 5 5 5 5 5 5 4 4 4 4 3 3 3 3 3 3 3 4 4
3 4 5 7 9 10 10 9 9 8 7 6 5 6 6 6 5 4 3 3 2 2 2 2 2 2 2 3 3 3 4 4 4 4 5 5 5 5 5 5 5 4 4 4 4 4 4 4 4 4 4 4 4 5
4 4 5 8 10 10 10 9 9 8 7 6 5 5 6 6 6 5 4 3 3 3 2 2 2 1 2 3 3 3 4 4 4 4 4 5 5 5 5 5 5 5 5 5 5 5 5 6 6 6 6 6 5 5
4 4 5 8 10 10 9 9 9 9 8 7 6 5 6 6 5 5 4 4 3 3 2 2 1 1 2 3 3 3 3 3 3 3 3 4 4 4 5 5 5 5 5 5 5 5 6 6 6 7 7 7 7 7
3 4 6 8 10 10 9 9 9 8 8 7 6 5 5 5 5 4 4 4 4 3 3 2 2 1 1 2 2 2 2 3 3 2 3 3 3 3 4 4 4 5 5 5 5 5 6 6 6 7 8 8 8 8
3 4 6 9 10 9 9 8 8 8 7 7 6 6 5 5 5 4 3 3 3 3 3 3 2 1 1 1 1 1 1 2 2 2 2 2 2 3 3 4 4 4 5 5 6 6 6 6 6 6 7 8 9 9
3 5 7 9 10 9 8 8 7 7 7 6 6 6 6 5 5 4 3 3 3 3 3 2 1 0 -0 -0 0 0 0 1 1 1 1 1 2 2 3 3 3 4 5 5 5 5 5 6 6 6 7 8 9 9
4 5 7 9 10 9 8 8 7 7 7 7 6 6 5 5 4 3 3 3 3 3 3 2 1 0 -0 -0 0 0 0 0 0 1 1 1 1 2 2 3 3 3 4 5 5 5 5 5 5 5 6 7 8 9
4 6 8 9 10 9 9 8 8 8 7 7 6 5 4 4 3 3 3 3 3 3 3 2 1 1 0 0 0 0 0 0 0 0 1 1 1 1 2 3 3 3 3 4 5 5 5 5 5 5 6 6 7 8
5 7 8 9 9 9 9 8 8 8 7 6 4 3 3 3 3 2 2 2 2 3 2 1 1 1 1 0 0 0 1 1 0 0 1 1 1 1 2 2 2 2 3 3 4 4 4 4 5 5 5 6 7 7
6 7 9 9 9 9 8 8 8 8 7 4 3 2 3 3 2 2 2 1 1 2 1 1 0 0 0 0 0 0 1 1 1 1 1 1 1 1 1 2 2 2 2 3 3 3 4 4 4 4 5 6 6 7
7 8 9 9 9 8 8 7 8 7 6 4 3 3 3 2 2 1 1 0 0 1 1 0 0 0 -0 -0 -0 0 0 0 1 1 1 1 1 1 1 1 1 2 2 2 2 3 3 3 4 4 5 5 6 6
8 8 9 9 9 8 7 7 7 7 6 5 3 2 2 1 1 0 0 0 0 0 0 0 -0 -0 -0 -0 -0 0 0 1 1 1 1 1 1 1 1 1 1 1 1 1 2 2 2 3 3 4 4 5 5 5
8 9 9 9 8 8 7 7 7 7 7 4 2 1 0 0 0 -0 -0 -0 -0 -0 -0 -0 -0 0 0 0 0 0 1 1 1 1 1 1 1 0 1 1 1 1 1 1 1 1 2 2 3 3 3 4 4 5
8 8 8 8 7 7 7 7 7 7 6 3 1 1 0 0 -0 -0 -0 -0 -0 -0 -0 -0 0 1 1 1 1 1 1 1 1 1 1 1 0 0 0 1 1 1 1 1 1 1 2 2 2 3 3 3 4 4
8 7 6 6 6 7 6 6 6 5 4 2 1 1 0 -0 -0 -0 -0 0 -0 -0 0 0 1 1 2 2 1 1 1 1 1 1 1 0 0 0 0 1 1 1 1 1 1 1 1 2 2 3 3 3 3 3
7 7 6 6 6 7 6 5 4 3 2 1 0 0 -0 -1 -1 -0 -0 -0 -0 0 1 1 1 2 2 2 1 1 1 1 1 1 1 1 1 0 0 1 1 1 1 0 1 1 1 1 2 2 3 3 3 3
7 7 7 7 7 7 5 4 2 1 0 -0 -0 -0 -1 -1 -1 -1 -0 -0 -0 0 1 1 2 2 2 2 1 1 1 1 1 1 1 1 1 1 1 1 1 1 0 0 0 0 1 1 2 2 2 2 3 3
8 8 7 7 7 6 4 2 1 1 0 -0 -0 -1 -1 -1 -1 -1 -1 -0 -0 0 1 2 2 2 2 2 1 1 0 1 1 1 1 1 1 1 1 1 1 1 1 1 0 0 0 1 1 1 2 2 2 3
7 7 6 6 6 5 3 1 0 -0 -1 -1 -1 -1 -1 -1 -1 -1 -1 -0 -0 1 2 2 2 2 1 1 1 0 0 1 1 1 1 2 2 2 2 1 1 1 1 1 0 0 0 1 1 1 1 2 2 2
5 4 3 4 4 4 3 1 0 -1 -1 -1 -1 -1 -0 -1 -1 -1 -1 -0 0 1 1 2 2 1 1 1 0 0 0 1 1 1 2 2 3 3 3 2 1 1 1 1 0 0 0 0 1 1 1 2 2 2
3 2 2 2 2 2 1 1 1 -0 -0 -0 -0 -0 -0 -0 -1 -1 -0 -0 0 1 1 1 2 2 1 1 0 0 0 1 1 2 2 3 3 4 3 3 2 1 1 0 0 0 0 1 1 1 1 1 2 2
2 2 1 1 1 1 1 0 -0 -0 -0 -0 -0 -0 -0 0 0 0 0 0 1 1 1 2 2 2 1 1 1 1 1 1 2 2 3 3 4 4 4 3 2 1 1 0 0 1 1 1 1 1 1 1 2 2
3 2 1 1 0 0 0 -0 -1 -1 -1 -1 -0 -0 0 1 1 1 1 1 1 2 2 2 2 2 2 2 2 3 3 3 3 4 4 4 5 5 5 4 3 2 1 1 1 1 1 1 1 1 1 1 1 1
3 2 2 1 1 1 0 -0 -0 -1 -1 -1 -1 -0 0 1 1 0 0 1 1 1 2 3 3 3 4 4 4 4 4 4 5 5 5 5 5 6 5 5 4 3 2 2 1 1 1 1 1 1 1 1 1 1
3 2 2 2 2 1 1 -0 -1 -1 -0 -1 -0 0 0 1 1 1 0 1 1 1 3 4 5 5 5 5 5 5 5 6 6 6 6 6 6 6 6 6 5 4 3 3 2 2 1 1 1 1 1 1 1 2
3 3 2 2 2 1 1 -0 -1 -1 -0 -0 -0 0 0 0 1 1 1 1 2 3 4 6 6 6 6 6 5 5 6 6 7 7 7 7 7 7 7 6 5 5 4 4 3 3 2 2 2 2 2 2 2 2
3 3 2 2 1 1 0 -0 -1 -1 -0 0 0 0 0 0 1 1 2 2 3 4 6 7 7 7 6 6 6 6 6 6 7 7 8 8 8 7 7 7 6 6 5 5 4 4 3 3 3 3 3 3 3 3
3 3 2 2 1 1 -0 -1 -1 -0 0 0 1 1 1 1 1 2 3 3 4 5 6 6 7 7 7 7 7 7 6 6 6 7 7 7 8 7 7 7 7 7 6 6 5 5 4 4 4 4 4 4 4 4
4 3 3 2 1 -0 -0 -0 -0 0 0 0 1 1 1 1 2 3 3 3 4 5 5 6 7 7 7 7 7 7 7 7 7 7 7 7 8 8 7 7 7 7 6 6 6 5 5 5 5 5 5 5 5 5
3 3 2 1 0 -0 -0 -0 -0 0 0 0 1 1 1 1 2 3 3 3 4 4 6 6 7 7 7 7 7 7 7 7 7 7 7 8 8 8 8 7 7 7 6 6 6 6 6 6 6 6 6 6 6 6
1 1 0 -0 -1 -0 -0 -0 -0 0 0 0 0 1 1 1 2 2 3 3 4 4 5 6 6 6 7 8 8 7 7 7 7 7 8 8 8 7 7 7 7 7 6 6 6 6 6 7 7 7 6 6 6 6
-0 -0 -1 -1 -1 -1 -0 -0 -0 0 0 0 0 1 1 1 1 2 3 4 4 4 4 5 5 6 7 8 8 8 8 7 7 7 7 7 7 7 7 7 7 7 7 7 6 6 7 7 7 7 6 6 6 6